Location: Ford County Road and Bridge Department
(37.7686°N, 99.9762°W)
Time: 05:07:33
(UTC+00:00)

ALOS - Pass Details

Date: 18 January 2020
Orbit: 683 x 686 km, 97.8° (Epoch: 17 February)

Event Time Altitude Azimuth Distance (km) Brightness Sun altitude
Rises 11:05:13 0° 26° (NNE) 3,054 5.9 -32.9°
Reaches altitude 10° 11:07:48 10° 39° (NE) 2,133 5.2 -32.3°
Maximum altitude 11:11:42 26° 95° (E) 1,343 4.3 -31.6°
Drops below altitude 10° 11:15:33 10° 152° (SSE) 2,119 5.1 -30.8°
Sets 11:18:06 0° 165° (SSE) 3,030 5.8 -30.3°
